Stations météo

réclame
Mon MeteoGroup
Ustica, Italie (16400): Température de l'air & dewpoint: 15.07.2018 09:00:00 - 21.07.2018 09:00:00 (CEST)Ustica, Italie (16400): Vitesse du vent: 15.07.2018 09:00:00 - 21.07.2018 09:00:00 (CEST)Ustica, Italie (16400): Direction du vent: 15.07.2018 09:00:00 - 21.07.2018 09:00:00 (CEST)Ustica, Italie (16400): reduced air pressure: 15.07.2018 09:00:00 - 21.07.2018 09:00:00 (CEST)Ustica, Italie (16400): visibility: 15.07.2018 09:00:00 - 21.07.2018 09:00:00 (CEST)Ustica, Italie (16400): Ensoleillement: 15.07.2018 09:00:00 - 21.07.2018 09:00:00 (CEST)
Date & Time tt [°C] td [°C] ff [km/h] ff [knt] dd ppp [hPa] vv [km] sd [min]
21.07.2018 09:00:00 26,0 25,2 28 15 SE 1013,3 30 60
21.07.2018 08:00:00 26,0 25,2 31 17 ESE 1013,4 30 18
21.07.2018 07:00:00 - - - - - - - -
21.07.2018 06:00:00 - - - - - - - -
21.07.2018 05:00:00 - - - - - - - -
21.07.2018 04:00:00 - - - - - - - -
21.07.2018 03:00:00 - - - - - - - -
21.07.2018 02:00:00 - - - - - - - -
21.07.2018 01:00:00 - - - - - - - -
21.07.2018 00:00:00 - - - - - - - -
20.07.2018 23:00:00 - - - - - - - -
20.07.2018 22:00:00 - - - - - - - -
20.07.2018 21:00:00 - - - - - - - -
20.07.2018 20:00:00 - - - - - - - -
20.07.2018 19:00:00 - - - - - - - -
20.07.2018 18:00:00 - - - - - - - -
20.07.2018 17:00:00 28,0 22,8 0 0 N 1015,0 30 60
20.07.2018 16:00:00 28,0 23,1 0 0 N 1015,1 30 60
20.07.2018 15:00:00 28,0 23,1 0 0 N 1015,3 30 60
20.07.2018 14:00:00 27,8 22,6 0 0 N 1015,3 30 60
20.07.2018 13:00:00 27,6 23,5 0 0 N 1015,3 30 60
20.07.2018 12:00:00 27,0 24,0 0 0 N 1015,3 30 60
20.07.2018 11:00:00 27,0 25,1 0 0 N 1014,6 20 60
20.07.2018 10:00:00 26,0 24,9 0 0 N 1014,4 30 60
20.07.2018 09:00:00 25,0 23,9 0 0 N 1014,2 30 60
20.07.2018 08:00:00 25,0 23,9 0 0 N 1014,0 30 24
20.07.2018 07:00:00 - - - - - - - -
20.07.2018 06:00:00 - - - - - - - -
20.07.2018 05:00:00 - - - - - - - -
20.07.2018 04:00:00 - - - - - - - -
20.07.2018 03:00:00 - - - - - - - -
20.07.2018 02:00:00 - - - - - - - -
20.07.2018 01:00:00 - - - - - - - -
20.07.2018 00:00:00 - - - - - - - -
19.07.2018 23:00:00 - - - - - - - -
19.07.2018 22:00:00 - - - - - - - -
19.07.2018 21:00:00 - - - - - - - -
19.07.2018 20:00:00 - - - - - - - -
19.07.2018 19:00:00 - - - - - - - -
19.07.2018 18:00:00 - - - - - - - -
19.07.2018 17:00:00 28,0 25,9 4 2 NNE 1014,4 30 60
19.07.2018 16:00:00 27,8 24,0 4 2 NNE 1014,4 30 60
19.07.2018 15:00:00 27,2 22,0 5 3 W 1014,5 30 60
19.07.2018 14:00:00 26,6 23,3 9 5 ESE 1014,6 30 60
19.07.2018 13:00:00 26,2 22,9 18 10 S 1014,5 20 60
19.07.2018 12:00:00 26,2 25,7 21 11 SSE 1014,5 20 60
19.07.2018 11:00:00 26,0 25,7 16 9 E 1014,4 20 60
19.07.2018 10:00:00 25,0 24,0 22 12 E 1014,5 20 60
19.07.2018 09:00:00 25,0 24,0 15 8 N 1014,7 20 60
19.07.2018 08:00:00 24,8 23,6 5 3 NE 1014,7 20 48
19.07.2018 07:00:00 - - - - - - - -
19.07.2018 06:00:00 - - - - - - - -
19.07.2018 05:00:00 - - - - - - - -
19.07.2018 04:00:00 - - - - - - - -
19.07.2018 03:00:00 - - - - - - - -
19.07.2018 02:00:00 - - - - - - - -
19.07.2018 01:00:00 - - - - - - - -
19.07.2018 00:00:00 - - - - - - - -
18.07.2018 23:00:00 - - - - - - - -
18.07.2018 22:00:00 - - - - - - - -
18.07.2018 21:00:00 - - - - - - - -
18.07.2018 20:00:00 27,0 27,0 8 4 N 1014,6 20 24
18.07.2018 19:00:00 28,0 26,4 8 4 N 1015,1 20 60
18.07.2018 18:00:00 28,4 26,8 8 4 N 1015,0 20 60
18.07.2018 17:00:00 28,4 26,6 11 6 N 1014,8 20 60
18.07.2018 16:00:00 28,4 26,0 15 8 N 1015,0 20 60
18.07.2018 15:00:00 28,2 26,0 13 7 N 1015,4 20 60
18.07.2018 14:00:00 27,8 25,4 13 7 NNE 1015,3 20 60
18.07.2018 13:00:00 27,6 26,5 11 6 N 1014,5 20 60
18.07.2018 12:00:00 27,2 24,9 11 6 N 1015,3 20 60
18.07.2018 11:00:00 26,0 24,2 13 7 N 1015,3 20 60
18.07.2018 10:00:00 25,6 24,4 11 6 N 1014,6 20 60
18.07.2018 09:00:00 25,0 24,0 9 5 N 1014,7 20 60
18.07.2018 08:00:00 24,8 23,6 9 5 N 1014,5 20 60
18.07.2018 07:00:00 - - - - - - - -
18.07.2018 06:00:00 - - - - - - - -
18.07.2018 05:00:00 - - - - - - - -
18.07.2018 04:00:00 - - - - - - - -
18.07.2018 03:00:00 - - - - - - - -
18.07.2018 02:00:00 - - - - - - - -
18.07.2018 01:00:00 - - - - - - - -
18.07.2018 00:00:00 - - - - - - - -
17.07.2018 23:00:00 - - - - - - - -
17.07.2018 22:00:00 - - - - - - - -
17.07.2018 21:00:00 - - - - - - - -
17.07.2018 20:00:00 25,2 25,2 21 11 NW 1014,4 20 12
17.07.2018 19:00:00 25,6 23,5 18 10 WNW 1014,4 20 60
17.07.2018 18:00:00 26,4 23,5 16 9 WNW 1013,3 20 60
17.07.2018 17:00:00 26,4 23,5 21 11 WNW 1012,8 20 48
17.07.2018 16:00:00 27,8 25,0 24 13 NW 1014,0 20 60
17.07.2018 15:00:00 27,0 23,2 29 16 WNW 1013,7 20 60
17.07.2018 14:00:00 26,8 24,7 26 14 WNW 1014,1 20 54
17.07.2018 13:00:00 26,4 24,8 28 15 WNW 1015,5 20 54
17.07.2018 12:00:00 26,2 24,8 28 15 W 1015,3 20 60
17.07.2018 11:00:00 26,0 24,8 26 14 W 1015,3 20 60
17.07.2018 10:00:00 26,0 25,1 28 15 SSW 1016,7 20 60
17.07.2018 09:00:00 25,4 24,4 34 18 SSW 1017,3 20 60
17.07.2018 08:00:00 25,4 24,2 41 22 WSW 1017,3 20 60
17.07.2018 07:00:00 - - - - - - - -
17.07.2018 06:00:00 - - - - - - - -
17.07.2018 05:00:00 - - - - - - - -
17.07.2018 04:00:00 - - - - - - - -
17.07.2018 03:00:00 - - - - - - - -
17.07.2018 02:00:00 - - - - - - - -
17.07.2018 01:00:00 - - - - - - - -
17.07.2018 00:00:00 - - - - - - - -
16.07.2018 23:00:00 - - - - - - - -
16.07.2018 22:00:00 - - - - - - - -
16.07.2018 21:00:00 - - - - - - - -
16.07.2018 20:00:00 26,6 26,6 28 15 E 1014,9 15 0
16.07.2018 19:00:00 27,0 27,0 9 5 N 1014,9 20 12
16.07.2018 18:00:00 28,0 25,2 15 8 NNE 1014,7 20 60
16.07.2018 17:00:00 28,2 25,2 8 4 WNW 1014,3 20 60
16.07.2018 16:00:00 28,0 25,6 9 5 SW 1014,5 20 60
16.07.2018 15:00:00 27,8 27,3 11 6 SSW 1015,0 20 60
16.07.2018 14:00:00 27,2 27,2 22 12 S 1014,8 20 60
16.07.2018 13:00:00 27,2 27,2 28 15 S 1014,4 20 48
16.07.2018 12:00:00 27,6 25,0 29 16 ESE 1015,2 20 54
16.07.2018 11:00:00 27,0 23,9 31 17 SE 1015,2 20 60
16.07.2018 10:00:00 26,0 24,8 11 6 ESE 1013,6 20 60
16.07.2018 09:00:00 25,6 24,6 9 5 ESE 1015,1 20 60
16.07.2018 08:00:00 25,4 24,2 9 5 ESE 1014,9 20 48
16.07.2018 07:00:00 - - - - - - - -
16.07.2018 06:00:00 - - - - - - - -
16.07.2018 05:00:00 - - - - - - - -
16.07.2018 04:00:00 - - - - - - - -
16.07.2018 03:00:00 - - - - - - - -
16.07.2018 02:00:00 - - - - - - - -
16.07.2018 01:00:00 - - - - - - - -
16.07.2018 00:00:00 - - - - - - - -
15.07.2018 23:00:00 - - - - - - - -
15.07.2018 22:00:00 - - - - - - - -
15.07.2018 21:00:00 - - - - - - - -
15.07.2018 20:00:00 26,8 25,2 18 10 WNW 1013,6 20 0
15.07.2018 19:00:00 27,4 25,8 22 12 WNW 1013,5 20 60
15.07.2018 18:00:00 28,0 27,0 18 10 NW 1013,4 20 30
15.07.2018 17:00:00 27,8 26,7 26 14 WNW 1013,5 20 54
15.07.2018 16:00:00 27,0 25,6 26 14 WNW 1013,6 20 42
15.07.2018 15:00:00 28,0 27,0 21 11 W 1014,1 20 36
15.07.2018 14:00:00 27,6 26,6 21 11 SSW 1013,6 20 0
15.07.2018 13:00:00 27,0 26,0 21 11 SSW 1014,1 20 12
15.07.2018 12:00:00 26,2 25,2 18 10 SSW 1013,7 20 36
15.07.2018 11:00:00 25,8 24,9 18 10 SSW 1013,6 20 24
15.07.2018 10:00:00 25,8 24,9 18 10 SSW 1013,7 20 12
15.07.2018 09:00:00 25,0 23,2 18 10 SSW 1013,8 20 0

tt = Température de l'air
td = dewpoint
ff = Vitesse du vent
dd = Direction du vent
ppp = reduced air pressure
vv = visibility
sd = Ensoleillement

stations d'obs. à proximité